Regional Weather Roundup
Issued by NWS

Home | Current Version | Previous Version | Graphics & Text | Print | Product List | Glossary On
Versions: 1 2 3 4 5 6 7 8 9 10 11 12 13 14 15 16 17 18 19 20 21 22 23 24 25 26 27 28 29 30 31 32 33 34 35 36 37 38 39 40 41 42 43 44 45 46 47 48 49 50
000
ASUS43 KDTX 251301
RWRMI
MICHIGAN HOURLY REGIONAL WEATHER ROUNDUP
NATIONAL WEATHER SERVICE DETROIT/PONTIAC MI
900 AM EDT WED APR 25 2018

NOTE: "FAIR" INDICATES FEW OR NO CLOUDS BELOW 12,000 FEET WITH NO
SIGNIFICANT WEATHER AND/OR OBSTRUCTION TO VISIBILITY.

MIZ047>049-052>055-059>063-066>070-074>076-081>083-251400-
SOUTHEAST LOWER MICHIGAN

CITY           SKY/WX    TMP DP  RH WIND       PRES   REMARKS
ADRIAN         CLOUDY    50  48  93 N13       29.95R
ALMA           FAIR      46  39  78 N10G18    30.02R
ANN ARBOR      CLOUDY    49  46  90 NW14      29.94R
BAD AXE        CLOUDY    43  39  84 N14G20    29.96S
CARO           CLOUDY    44  39  83 NW8G16    29.97R
DETROIT CITY   CLOUDY    50  47  89 N12       29.93R
DETROIT        CLOUDY    52  47  83 NW13G21   29.93R
FLINT          CLOUDY    45  39  79 NW8       29.99R
GROSSE ILE     CLOUDY    52  50  94 N8        29.91S
HILLSDALE      CLOUDY    45  43  93 N15       29.97R FOG
HOWELL         CLOUDY    44  41  89 N8        29.98R

CITY           SKY/WX    TMP DP  RH WIND       PRES   REMARKS
JACKSON        CLOUDY    46  42  86 NW9       29.99R
LAMBERTVILLE   CLOUDY    53  50  89 N6        29.93R
LANSING        CLOUDY    45  38  76 N10       30.01R
LAPEER         CLOUDY    43  40  92 N6        29.96S
MASON          CLOUDY    45  38  76 N12       30.00R
MONROE         CLOUDY    52  49  92 NW9       29.92R
MT. CLEMENS    CLOUDY    47  47 100 N14       29.92R
PONTIAC        CLOUDY    44  43  96 N13       29.94R FOG
PORT HOPE        N/A     39  38  96 NW15G22   29.94S WCI  31
PORT HURON     LGT RAIN  45  43  93 NW8       29.93S
TRI CITIES     CLOUDY    45  37  73 N13       30.00R
MIDLAND        FAIR      44  37  78 NW8       30.00R
TROY           CLOUDY    48  46  91 NW14G20   29.96R
SAGINAW HB     CLOUDY    43  37  81 N9        29.99R
$$
MIZ043>046-050>051-056>058-064>065-071>073-077>080-251400-
SOUTHWEST LOWER MICHIGAN

CITY           SKY/WX    TMP DP  RH WIND       PRES   REMARKS
BATTLE CREEK   PTSUNNY   46  38  73 N13       30.02R
BENTON HARBOR  FAIR      44  35  70 N8        30.06R
BIG RAPIDS     FAIR      43  32  63 N9G16     30.04S
COLDWATER      CLOUDY    47  44  87 N7        30.00R
FREMONT        FAIR      45  27  49 N14       30.06R
HOLLAND        FAIR      48  34  58 N10G17    30.06S
GRAND RAPIDS   FAIR      47  36  65 N15       30.04R
IONIA          FAIR      46  37  71 NW8       30.02S
KALAMAZOO      FAIR      47  37  68 N13       30.03R
LUDINGTON      FAIR      40  35  81 N15G22    30.10S WCI  32
MARSHALL       CLOUDY    46  40  80 N7        30.00R
MOUNT PLEASANT FAIR      46  39  76 N8        30.01S
MUSKEGON       FAIR      48  31  51 N10       30.08R
SOUTH HAVEN    FAIR      46  35  66 NW9       30.06R
$$
MIZ016>042-251400-
NORTHERN LOWER MICHIGAN

CITY           SKY/WX    TMP DP  RH WIND       PRES   REMARKS
ALPENA         LGT RAIN  39  39 100 N10       30.02R WCI  32
BEAVER ISLAND  FAIR      38  33  81 N10G17    30.10S WCI  31
BELLAIRE       CLOUDY    37  34  87 N3        30.08S
CADILLAC       FAIR      37  32  82 NW12      30.04R WCI  30
CHARLEVOIX     CLOUDY    36  36 100 N8        30.12R WCI  30
FRANKFORT      PTSUNNY   39  34  84 N9G20     30.11R WCI  32
GAYLORD        CLOUDY    36  34  92 W5        30.03R WCI  32
HARBOR SPRINGS FAIR      39  35  88 N7        30.06S WCI  34
HOUGHTON LAKE  FAIR      41  34  76 N12       30.02S
MANISTEE       FAIR      40  34  79 NW13      30.10R WCI  32
OSCODA         MIX PCPN  41  39  93 N10       29.98S
PELLSTON       PTSUNNY   40  35  83 N12       30.07R WCI  33
ROGERS CITY    DRIZZLE   37  35  95 NW9       30.05R WCI  30
TRAVERSE CITY  CLOUDY    38  34  85 N6        30.08S WCI  33
$$
MIZ007>008-015-251400-
EASTERN UPPER MICHIGAN

CITY           SKY/WX    TMP DP  RH WIND       PRES   REMARKS
KINROSS        CLOUDY    38  31  76 N10       30.07R WCI  31
MACKINAC ISLAN CLOUDY    38  34  84 N7        30.06R WCI  33
NEWBERRY       CLOUDY    36  33  88 N12       30.10S WCI  28
MUNISING         N/A     35  29  78 N16       30.16R WCI  25
$$
MIZ004>006-011>014-085-251400-
CENTRAL UPPER MICHIGAN

CITY           SKY/WX    TMP DP  RH WIND       PRES   REMARKS
MANISTIQUE     CLOUDY    37  31  81 NW12      30.12R WCI  29
ESCANABA       FAIR      37  28  70 N9G16     30.17S WCI  30
MENOMINEE      FAIR      37  29  72 N13       30.19R WCI  29
SAWYER-GWINN   SUNNY     32  27  80 N20       30.16S WCI  20
$$
MIZ001>003-009>011-084-251400-
WESTERN UPPER MICHIGAN

CITY           SKY/WX    TMP DP  RH WIND       PRES   REMARKS
IRON MOUNTAIN  FAIR      34  27  75 N9        30.17S WCI  27
HOUGHTON       FAIR      35  24  64 NE6       30.20S WCI  30
COPPER HARBOR    N/A     35  28  75 NE7       30.21S WCI  29
IRONWOOD       FAIR      34  31  88 CALM      30.23S
$$

ABBREVIATIONS USED IN REMARKS
   TC - TEMPERATURE IN CELSIUS
  WCI - WIND CHILL INDEX
   HX - HEAT INDEX
  VSB - VISIBILITY




USA.gov is the U.S. government's official web portal to all federal, state and local government web resources and services.